Vorticity
nan nan nan nan nan nan nan nan nan nan nan nan nan nan nan nan nan nan nan nan nan nan nan nan nan nan nan nan nan nan nan nan nan nan nan nan nan nan nan nan nan nan nan nan nan nan nan nan nan nan nan nan nan nan nan nan nan nan nan nan nan nan nan nan nan nan nan nan nan nan nan nan nan nan nan nan nan nan nan nan nan nan nan nan nan nan
nan 9 11 11 7 7 12 12 7 7 9 8 8 8 9 8 6 6 6 8 10 10 11 12 12 11 11 11 10 8 5 5 6 6 6 6 6 6 6 6 6 6 7 7 7 7 7 7 7 6 6 6 7 7 7 7 7 7 8 8 9 10 10 11 13 14 14 13 12 11 10 9 8 8 7 6 6 6 6 6 6 6 7 7 8 nan
nan 8 11 10 8 7 11 12 8 10 10 9 10 10 10 7 6 6 7 7 8 9 11 13 14 12 11 12 12 9 6 6 6 6 6 5 6 6 6 6 6 6 7 7 7 7 7 7 7 7 6 7 7 7 7 8 8 8 8 8 9 9 9 10 10 11 11 10 9 9 9 9 9 8 8 7 6 6 6 6 6 6 7 7 8 nan
nan 9 9 9 9 9 11 11 10 10 10 10 10 10 8 6 6 7 8 9 8 8 9 12 14 13 11 12 14 12 9 7 6 6 6 5 5 6 6 6 6 6 6 7 7 7 7 7 7 6 7 7 7 7 7 8 8 9 9 9 9 9 9 8 8 8 8 8 7 7 8 9 9 9 9 8 7 6 6 6 6 7 7 8 8 nan
nan 9 9 8 9 9 10 11 10 9 9 8 8 7 7 8 9 9 9 10 9 8 8 10 11 12 12 14 17 16 11 8 7 6 6 6 6 6 6 6 6 6 6 7 7 7 7 7 7 7 7 7 7 7 8 9 9 9 10 10 10 9 9 8 8 7 7 7 7 8 8 8 8 9 9 9 8 7 7 6 7 7 8 8 9 nan
nan 9 8 8 8 9 9 10 10 8 7 6 6 6 7 9 10 10 10 9 8 8 8 8 9 11 13 17 20 17 12 8 7 7 6 6 6 6 6 6 6 6 6 7 7 7 7 7 7 6 6 7 7 7 8 8 9 10 10 11 11 10 10 9 8 8 7 7 8 8 8 8 8 8 8 9 9 8 8 7 7 8 8 9 9 nan
nan 9 8 8 9 9 10 10 10 8 7 6 5 5 7 8 9 10 10 10 9 8 8 8 8 9 13 18 19 16 10 8 6 5 5 6 5 6 6 6 6 6 6 6 7 7 7 7 7 6 6 6 6 7 7 8 9 10 10 11 11 11 11 10 9 8 8 8 8 8 9 9 8 8 8 8 8 9 9 8 8 8 8 9 9 nan
nan 10 8 7 8 9 9 10 10 9 9 8 6 6 6 7 8 8 9 10 10 10 8 7 8 8 11 16 16 12 8 6 4 4 4 4 4 5 5 6 6 6 6 6 7 7 7 7 7 6 6 6 6 6 7 7 8 9 10 11 11 11 11 11 10 10 9 9 9 9 9 9 9 8 8 8 8 9 9 9 9 9 8 9 9 nan
nan 9 9 9 8 7 8 10 11 11 9 9 8 8 7 7 7 7 7 9 10 10 10 8 8 7 10 14 15 13 10 7 7 7 6 6 6 7 7 6 5 5 6 7 7 7 7 7 7 7 6 6 6 6 6 7 7 8 9 9 10 11 11 11 11 11 10 10 10 9 9 9 9 9 8 8 8 8 8 9 9 9 9 9 9 nan
nan 9 9 9 9 8 9 10 12 12 10 8 10 10 9 8 7 7 7 7 8 10 11 10 9 8 9 13 14 14 12 10 9 11 11 13 15 12 8 7 6 7 7 7 7 7 8 8 8 7 7 6 6 6 6 6 7 7 8 8 9 9 10 11 11 11 11 10 10 10 10 9 9 9 8 8 7 8 8 9 9 9 9 9 10 nan
nan 8 8 8 9 10 11 11 11 12 10 9 9 9 10 10 9 9 7 6 7 8 9 9 9 9 10 11 13 12 10 6 6 7 10 13 14 12 8 7 8 8 7 6 7 7 8 8 8 8 7 6 6 6 6 6 6 7 7 8 8 8 9 10 10 10 11 11 10 10 10 10 10 9 9 8 8 8 8 8 8 8 9 10 10 nan
nan 8 8 9 9 9 9 10 10 11 10 9 9 9 10 11 9 9 9 7 7 7 6 6 7 9 10 12 12 11 8 6 5 4 5 6 6 6 5 5 5 5 4 4 4 6 8 8 8 8 7 7 6 6 6 6 7 7 7 7 7 7 8 8 9 10 10 10 11 11 11 10 10 10 9 9 9 9 8 8 8 8 9 10 11 nan
nan 9 10 10 9 9 9 9 9 10 9 9 9 9 10 11 10 9 10 11 10 8 7 5 6 6 8 11 12 12 9 7 6 6 5 5 5 5 5 5 5 4 4 4 4 5 7 7 7 7 7 7 7 7 6 6 7 7 7 8 7 7 7 8 8 9 10 10 11 11 12 11 11 10 10 9 9 9 8 8 7 8 8 9 10 nan
nan 9 9 9 9 9 9 9 10 9 9 9 9 9 11 12 11 9 10 11 11 10 9 7 6 6 7 9 11 13 11 9 7 7 7 7 7 8 9 8 8 8 7 7 7 8 7 6 6 7 9 8 8 8 7 6 7 8 8 8 7 7 7 8 8 8 9 10 11 11 12 12 11 11 10 9 9 8 8 7 7 7 7 8 9 nan
nan 9 9 8 8 9 9 9 9 10 10 9 8 9 12 12 11 9 9 10 9 9 9 8 6 6 7 9 9 10 12 11 8 8 6 5 6 8 10 10 9 9 9 9 9 9 8 7 8 9 10 9 9 8 9 10 9 9 8 8 8 8 8 8 8 8 8 9 10 11 11 11 11 10 9 8 8 8 7 7 7 7 7 7 7 nan
nan 9 9 9 8 9 10 9 8 9 10 10 10 10 11 11 10 9 9 9 8 8 8 6 5 6 7 9 9 9 11 12 9 8 6 5 6 7 10 10 9 9 10 10 9 9 8 9 10 11 11 10 9 8 10 13 12 10 9 9 8 8 8 8 9 9 9 9 9 10 11 11 10 9 9 8 7 7 7 7 7 7 7 7 7 nan
nan 9 9 8 9 10 11 10 9 9 9 10 10 11 11 11 10 9 8 8 8 8 9 8 6 6 8 9 11 11 11 10 10 9 7 6 6 7 9 11 10 10 10 9 9 9 9 10 10 11 12 10 8 7 9 11 11 11 10 9 9 8 8 9 9 10 10 10 9 9 10 10 10 9 8 7 7 7 6 7 7 7 7 7 7 nan
nan 9 9 8 9 11 11 10 10 10 10 9 10 10 11 12 11 10 9 8 9 9 9 8 7 7 9 11 14 15 11 8 9 9 7 6 6 7 9 11 11 10 10 10 9 9 10 10 11 12 12 9 7 7 9 11 12 12 11 10 9 8 8 9 10 11 12 11 10 9 9 9 9 9 8 7 7 7 6 6 7 7 7 7 7 nan
nan 10 9 9 9 11 11 11 11 10 9 10 10 10 9 10 11 10 9 9 9 9 9 7 7 8 9 14 19 19 12 7 9 9 7 7 7 8 10 11 11 10 10 10 10 9 9 10 11 11 9 7 7 7 9 11 12 12 11 9 8 8 7 9 11 12 13 13 11 10 9 9 9 8 8 8 8 7 7 7 7 7 7 7 7 nan
nan 10 9 9 10 10 11 13 12 12 11 11 10 10 9 9 9 8 9 9 9 8 8 9 9 9 10 14 18 18 13 8 8 8 8 7 8 9 10 10 10 10 9 9 10 10 10 9 9 9 8 7 7 8 9 11 12 12 10 9 8 8 8 9 11 13 14 13 12 11 10 9 9 9 9 9 9 8 8 8 7 7 7 7 7 nan
nan 11 10 9 9 9 11 15 17 17 15 11 9 8 9 9 9 9 9 9 9 9 9 9 9 9 12 15 16 16 13 8 6 5 7 7 8 10 11 10 10 9 9 9 9 10 10 9 9 11 10 8 8 8 10 11 12 12 10 9 9 9 9 10 11 12 13 13 12 11 10 10 10 10 9 9 10 10 10 9 9 8 8 7 7 nan
nan 12 12 11 10 11 14 18 19 18 15 10 7 7 8 9 9 9 9 10 10 10 8 8 9 11 15 16 14 14 13 9 6 5 7 8 9 10 10 11 10 10 9 9 10 10 10 9 10 12 12 9 8 8 9 11 11 11 10 9 9 9 9 10 10 11 11 11 11 10 10 9 9 9 9 9 9 10 10 10 10 9 8 8 7 nan
nan 11 12 13 12 13 17 19 18 16 13 9 8 7 10 12 11 10 10 10 11 10 10 10 10 11 12 12 11 10 10 11 12 12 10 9 9 9 10 11 11 10 10 10 11 11 10 9 11 13 14 11 9 8 10 11 11 11 10 9 9 10 9 9 10 10 10 10 10 9 9 9 8 8 8 8 8 8 9 10 10 10 9 8 8 nan
nan 11 13 14 14 15 16 16 15 14 11 9 9 11 14 14 13 13 13 13 12 12 11 10 9 8 8 9 9 8 7 10 13 15 13 10 9 10 11 11 11 10 10 10 11 11 10 10 11 13 14 13 10 9 10 12 12 10 9 9 9 9 9 9 9 9 10 10 10 9 9 8 8 8 8 7 7 7 8 8 9 9 9 8 8 nan
nan 14 15 15 16 16 18 19 17 15 11 9 10 11 13 14 13 13 14 14 13 12 10 8 7 6 7 8 8 8 7 8 11 14 13 11 10 10 11 11 10 9 10 10 11 11 10 10 11 11 13 14 13 11 11 12 11 10 9 9 9 9 9 8 8 9 9 9 10 10 9 9 9 9 8 8 8 8 7 7 8 8 8 8 8 nan
nan 18 18 17 16 17 20 21 19 16 11 9 10 10 10 10 10 9 10 11 10 10 8 6 6 6 7 8 9 9 9 8 8 11 12 11 11 10 10 10 10 10 10 10 10 10 10 10 11 11 12 14 16 16 15 14 13 11 10 9 9 9 9 9 8 8 9 9 9 9 9 9 9 9 9 9 9 8 8 8 8 8 8 8 8 nan
nan 18 17 16 15 16 17 19 18 15 11 9 10 9 7 6 7 8 8 9 9 8 6 5 6 7 8 9 10 11 11 9 8 8 10 11 11 11 10 11 10 10 9 10 11 11 10 9 10 11 11 13 16 18 19 18 16 14 11 11 11 10 10 10 9 9 9 9 9 9 9 9 9 9 9 9 9 9 8 8 8 8 8 8 8 nan
nan 16 16 15 15 15 16 16 14 13 12 11 9 3 -1 2 6 7 8 9 9 8 7 7 6 7 9 10 9 10 11 10 9 8 9 11 11 11 12 11 10 9 8 9 10 11 11 10 10 11 11 10 11 14 17 18 17 16 14 13 13 12 12 11 11 10 9 9 9 9 9 9 9 9 9 9 9 9 9 8 8 8 8 8 9 nan
nan 12 14 15 15 15 14 13 14 14 13 11 6 -2 -4 0 6 8 10 10 10 9 9 8 8 8 9 10 9 10 10 11 11 10 10 10 10 11 12 12 10 9 7 8 9 10 11 11 11 11 11 10 8 9 11 13 14 14 14 14 13 12 12 12 11 10 9 9 9 8 8 9 9 9 9 9 9 9 9 9 8 8 8 9 9 nan
nan 6 7 10 11 11 10 12 14 16 14 9 4 -2 -2 3 8 10 13 12 10 9 9 9 9 9 9 9 8 8 11 13 13 11 9 9 9 11 12 12 10 9 6 6 8 10 11 12 11 11 11 10 8 7 8 9 9 9 11 11 10 10 10 9 9 8 8 8 8 8 8 8 8 8 9 9 9 9 10 9 8 8 9 9 9 nan
nan 4 5 6 6 7 8 10 12 13 11 6 2 1 4 10 13 14 14 12 10 9 10 10 11 10 9 7 7 8 12 15 14 10 7 7 9 11 12 11 10 9 6 6 8 9 11 12 12 11 10 9 8 9 9 8 8 8 8 8 8 8 7 6 6 6 7 7 7 8 8 8 8 8 8 8 8 9 9 9 8 7 9 10 10 nan
nan 6 6 7 6 7 8 9 9 9 7 4 3 5 8 12 15 16 14 12 11 10 11 12 12 11 9 7 8 9 13 17 17 12 5 5 8 12 12 11 10 9 7 6 8 10 11 12 12 12 10 9 9 10 10 9 8 8 9 8 8 9 8 5 5 6 7 8 8 8 8 8 8 8 8 8 8 8 8 8 8 7 8 10 10 nan
nan 8 8 8 8 9 9 10 9 9 8 7 7 7 8 10 11 13 13 13 13 14 14 14 12 11 9 8 8 10 13 18 21 15 4 1 7 11 12 11 11 10 8 7 8 9 11 13 13 13 12 10 10 10 11 9 8 8 9 9 9 11 10 7 7 8 9 10 11 11 10 9 9 7 7 7 7 8 8 8 8 7 6 8 9 nan
nan 9 8 8 9 9 10 10 10 9 9 9 9 9 9 9 9 9 10 12 13 14 16 16 14 12 9 7 8 10 13 18 21 15 3 0 7 11 13 11 11 10 9 8 9 9 11 12 13 13 12 12 11 11 11 11 10 8 8 9 9 10 11 10 9 10 11 12 12 13 13 12 12 10 8 9 8 8 8 9 9 8 6 6 7 nan
nan 8 8 8 9 9 9 9 9 9 10 9 9 9 10 9 9 8 9 10 12 13 14 15 15 15 13 11 10 11 13 18 19 13 4 2 7 11 12 11 11 10 9 9 9 9 11 12 12 11 11 11 11 12 11 11 11 9 9 9 9 9 10 10 10 11 11 11 11 12 13 14 14 13 12 12 11 10 9 9 9 9 8 7 6 nan
nan 9 8 8 9 9 9 8 8 8 9 9 9 10 10 10 10 10 10 10 11 11 12 13 14 15 16 16 16 16 16 18 18 13 5 4 7 9 11 12 12 11 9 9 9 9 10 12 11 10 8 8 10 12 12 12 11 10 9 10 9 9 9 10 10 10 11 10 10 11 11 12 13 14 14 14 12 11 10 10 10 10 9 8 7 nan
nan 9 8 8 9 9 8 8 8 8 8 9 9 10 10 10 10 10 10 10 11 11 10 10 11 12 18 21 20 19 19 18 17 14 8 6 8 9 11 13 13 11 9 9 9 9 9 10 11 10 7 7 10 12 13 12 10 10 10 11 11 10 10 10 10 9 10 10 10 10 10 11 11 13 14 15 13 12 12 12 12 11 10 9 9 nan
nan 9 9 9 9 9 9 9 9 9 9 10 10 10 10 11 11 11 10 10 11 12 11 9 7 6 10 18 20 20 20 18 16 14 11 9 10 11 11 13 13 11 9 9 9 9 9 9 10 9 8 9 11 13 13 11 10 10 11 12 11 11 10 10 10 9 10 11 11 10 10 10 10 11 13 13 12 12 13 15 15 13 13 13 12 nan
nan 10 11 10 10 10 10 10 10 10 10 11 11 11 10 10 10 10 10 10 10 11 12 12 9 5 4 8 12 14 15 13 13 12 11 11 12 14 13 13 13 11 10 10 10 10 9 9 9 10 10 10 11 11 11 11 11 11 12 11 11 11 11 11 10 10 9 10 11 11 10 10 10 10 10 11 11 11 11 14 16 15 13 14 16 nan
nan 11 11 11 10 11 13 13 12 11 11 11 10 9 8 8 7 7 8 9 9 10 10 10 9 7 6 6 6 7 9 10 9 9 9 9 12 14 15 14 13 11 10 10 12 12 10 9 10 12 11 11 11 10 10 12 12 12 9 8 10 14 14 11 10 10 10 10 11 10 10 10 10 10 10 9 9 10 10 12 15 15 13 11 13 nan
nan 10 10 9 9 11 12 13 13 12 11 9 7 7 8 8 7 7 7 7 8 8 7 6 6 6 6 6 5 5 6 9 9 10 9 8 10 13 16 15 13 12 10 10 11 12 11 11 11 11 11 12 12 12 11 13 14 11 6 5 10 15 17 12 10 9 10 10 11 11 10 10 10 9 9 9 9 9 9 10 11 12 11 10 11 nan
nan 9 9 9 9 10 11 12 12 11 9 8 8 9 9 9 9 9 8 8 8 9 9 7 7 7 6 6 6 6 7 8 9 9 8 8 10 13 15 15 14 12 11 11 11 11 11 12 12 11 11 11 11 11 12 13 13 11 6 6 9 12 13 12 10 10 10 10 10 12 11 8 10 11 10 10 10 11 11 10 9 8 7 8 9 nan
nan 10 11 11 11 11 11 10 9 8 8 8 9 10 10 10 10 10 9 9 10 10 10 9 9 8 8 8 7 7 8 9 9 9 8 8 9 12 14 15 14 12 11 10 10 10 10 10 10 10 11 11 11 11 11 12 11 11 10 9 7 5 7 13 13 12 10 10 10 11 11 9 10 11 11 11 11 11 12 12 12 10 6 6 8 nan
nan 11 11 11 10 10 8 8 8 8 9 9 10 10 11 11 11 9 8 10 11 11 9 9 9 8 8 9 9 8 8 9 9 9 9 9 9 10 12 14 13 13 12 11 10 9 9 9 9 9 10 11 11 11 11 11 11 11 12 11 8 6 7 12 14 12 10 11 11 11 11 10 10 10 11 10 10 10 11 11 12 13 11 9 9 nan
nan 11 11 10 10 9 9 9 9 9 10 10 10 10 11 11 10 9 9 10 11 10 10 10 9 8 9 10 9 9 9 9 9 8 8 7 8 9 12 12 13 13 12 12 12 11 10 10 10 9 10 10 11 11 10 10 10 12 13 11 9 7 8 11 12 11 11 11 11 12 12 11 10 10 10 10 10 10 10 11 10 11 12 11 10 nan
nan 11 10 9 10 11 10 9 9 9 9 10 10 10 11 11 10 10 10 10 10 10 11 10 9 9 10 10 10 9 9 9 9 9 9 9 9 9 10 10 11 12 12 12 12 12 12 12 12 10 9 9 10 10 10 10 10 10 12 12 10 8 9 9 10 11 12 11 12 13 13 11 10 10 10 10 10 10 11 11 11 11 11 11 11 nan
nan 10 9 10 10 10 10 9 9 9 10 9 9 10 10 11 11 11 10 10 10 11 11 10 10 10 10 10 10 10 10 10 9 9 10 10 11 10 9 8 8 10 11 11 10 10 10 11 12 13 11 10 10 11 12 11 10 10 11 11 11 10 10 10 10 11 12 11 12 13 12 10 10 10 10 10 10 11 12 12 12 11 11 11 10 nan
nan 9 9 10 10 10 10 9 10 10 9 9 9 10 11 12 12 10 9 11 10 11 10 10 10 10 10 10 11 12 11 10 10 10 10 10 10 10 9 8 8 8 9 9 9 9 9 9 9 10 10 10 10 11 12 12 11 11 11 11 10 10 11 11 11 11 11 12 12 12 10 9 9 10 10 9 10 11 12 13 13 12 11 11 11 nan
nan 10 10 9 9 10 10 10 10 10 9 9 9 10 12 14 12 7 7 10 10 10 10 11 10 10 10 11 12 13 11 9 10 11 11 10 10 10 9 9 9 9 9 9 9 9 10 11 10 9 7 6 6 9 11 12 12 11 11 10 10 10 11 12 13 12 11 11 11 11 10 9 9 10 10 9 10 10 12 13 13 12 11 11 11 nan
nan 11 10 10 10 10 10 11 10 10 10 9 9 9 10 11 10 9 10 11 10 10 10 11 10 10 10 11 12 12 10 9 10 11 11 10 10 10 10 9 9 9 9 9 10 10 11 13 15 17 13 5 2 2 7 10 11 12 11 10 10 10 10 11 13 13 11 9 9 9 10 10 10 10 10 10 10 10 11 12 13 13 13 12 11 nan
nan nan nan nan nan nan nan nan nan nan nan nan nan nan nan nan nan nan nan nan nan nan nan nan nan nan nan nan nan nan nan nan nan nan nan nan nan nan nan nan nan nan nan nan nan nan nan nan nan nan nan nan nan nan nan nan nan nan nan nan nan nan nan nan nan nan nan nan nan nan nan nan nan nan nan nan nan nan nan nan nan nan nan nan nan nan
CAPE
0 2 3 2 2 1 2 2 1 1 1 0 0 0 0 nan nan nan nan nan nan nan nan 0 0 0 1 0 0 0 nan nan nan nan nan nan nan nan nan nan nan nan nan nan nan nan nan nan nan nan nan nan nan nan nan nan nan nan nan nan nan 2 6 10 10 13 14 15 9 9 8 4 nan nan nan nan nan nan nan nan nan nan nan nan nan nan
1 2 2 2 2 1 1 4 1 1 0 0 0 0 0 nan nan nan nan nan nan nan nan 1 1 2 1 1 1 1 nan nan nan nan nan nan nan nan nan nan nan nan nan nan nan nan nan nan nan nan nan nan nan nan nan nan nan nan nan nan nan nan nan 2 2 8 10 9 8 8 5 0 nan nan nan nan nan nan nan nan nan nan nan nan nan nan
1 1 1 3 3 2 1 4 1 1 1 0 0 0 0 nan nan nan nan nan nan nan nan nan nan 3 2 2 2 2 nan nan nan nan nan nan nan nan nan nan nan nan nan nan nan nan nan nan nan nan nan nan nan nan nan nan nan nan nan nan nan nan nan nan nan nan 1 1 1 1 nan nan nan nan nan nan nan nan nan nan nan nan nan nan nan nan
0 0 1 2 2 2 1 1 1 1 0 0 1 1 0 0 nan nan nan nan nan nan nan nan nan 1 2 2 4 4 1 nan nan nan nan nan nan nan nan nan nan nan nan nan nan nan nan nan nan nan nan nan nan nan nan nan nan nan nan nan nan nan nan nan nan nan nan nan nan nan nan nan nan nan nan nan nan nan nan nan nan nan nan nan nan nan
0 0 1 1 1 1 2 1 1 1 1 0 0 0 nan nan nan nan nan nan nan nan nan nan nan nan 2 3 4 4 2 nan nan nan nan nan nan nan nan nan nan nan nan nan nan nan nan nan nan nan nan nan nan nan nan nan nan nan nan nan nan nan nan nan nan nan nan nan nan nan nan nan nan nan nan nan nan nan nan nan nan nan nan nan nan nan
0 nan nan 0 0 0 nan 0 0 0 1 0 nan nan nan nan nan nan nan nan nan nan nan nan nan nan nan 3 3 3 2 1 0 0 0 nan nan nan nan nan nan nan nan nan nan nan nan nan nan nan nan nan nan nan nan nan nan nan nan nan nan nan nan nan nan nan nan nan nan nan nan nan nan nan nan nan nan nan nan nan nan nan nan nan nan nan
nan nan nan nan nan 0 0 nan 0 0 nan 0 nan nan nan nan nan nan nan nan nan nan nan nan nan nan nan 3 6 6 3 2 0 0 0 nan nan nan nan nan nan nan nan nan nan nan nan nan nan nan nan nan nan nan nan nan nan nan nan nan nan nan nan nan nan nan nan nan nan nan nan nan nan nan nan nan nan nan nan nan nan nan nan nan nan nan
nan nan 0 nan nan 0 0 0 1 1 0 nan nan nan 0 0 nan nan nan nan nan nan nan nan nan nan nan nan 3 3 nan nan nan nan nan nan nan nan nan nan nan nan nan nan nan nan nan nan nan nan nan nan nan nan nan nan nan nan nan nan nan nan nan nan nan nan nan nan nan nan nan nan nan nan nan nan nan nan nan nan nan nan nan nan nan nan
nan nan 0 nan nan nan nan 0 2 2 1 nan nan nan nan nan nan nan nan nan nan nan nan nan nan nan nan nan 1 1 nan nan nan nan nan nan nan nan nan nan nan nan nan nan nan nan nan nan nan nan nan nan nan nan nan nan nan nan nan nan nan nan nan nan nan nan nan nan nan nan nan nan nan nan nan nan nan nan nan nan nan nan nan nan nan nan
nan nan nan nan nan nan nan 0 2 2 0 0 nan nan nan nan nan nan nan nan nan nan nan nan nan nan nan nan 0 0 nan nan 0 0 0 nan nan nan nan nan nan nan nan nan nan nan nan nan nan nan nan nan nan nan nan nan nan nan nan nan nan nan nan nan nan nan nan nan nan nan nan nan nan nan nan nan nan nan nan nan nan nan nan nan nan nan
nan nan nan 0 0 nan nan nan nan nan nan 0 1 1 nan nan nan nan nan nan nan nan nan nan nan nan nan nan nan nan nan nan nan nan nan nan nan nan nan nan nan nan nan nan nan nan nan nan nan nan nan nan nan nan nan nan nan nan nan nan nan nan nan nan nan nan nan nan nan nan nan nan nan nan nan nan nan nan nan nan nan nan nan nan nan 0
nan nan nan nan nan nan nan nan nan nan nan nan 0 0 1 nan nan nan nan nan nan nan nan nan nan nan nan nan nan nan nan nan nan nan nan nan nan nan nan nan nan nan nan nan nan nan nan nan nan nan nan nan nan nan nan nan nan nan nan nan nan nan nan nan nan nan nan nan nan nan nan nan nan nan nan nan nan nan nan nan nan nan nan nan nan 0
nan nan nan nan nan nan nan nan nan nan nan nan nan nan 0 nan nan nan nan nan nan nan nan nan nan nan nan nan nan nan nan nan nan nan nan nan nan nan nan nan nan nan nan nan nan nan nan nan nan nan nan nan nan nan nan nan nan nan nan nan nan nan nan nan nan nan nan nan nan nan nan nan nan nan nan nan nan nan nan nan nan nan nan nan nan nan
nan nan nan nan nan nan 0 nan nan nan nan nan nan nan nan nan nan nan nan nan nan nan nan nan nan nan nan nan nan nan nan nan nan nan nan nan nan nan nan nan nan nan nan nan nan nan nan nan nan nan nan nan nan nan nan nan nan nan nan nan nan nan nan nan nan nan nan nan 0 0 nan nan nan nan nan nan nan nan nan nan nan nan nan nan nan nan
nan nan nan 0 0 0 nan nan nan nan nan nan nan nan nan nan nan nan nan nan nan nan nan nan nan nan 0 nan nan nan nan nan nan nan nan nan nan nan nan nan nan nan nan nan nan nan nan nan nan nan nan nan nan nan nan nan nan nan nan nan nan nan nan nan nan nan nan nan 0 0 0 0 0 0 0 0 nan nan nan nan nan nan nan nan nan nan
nan nan nan nan nan nan nan nan nan nan nan nan nan nan nan nan nan nan nan nan nan nan nan nan nan nan 0 nan nan nan nan nan nan nan nan nan nan nan nan nan nan nan nan nan nan nan nan nan nan nan nan nan nan nan nan nan nan nan nan nan nan nan nan nan nan nan nan nan nan nan 0 0 0 0 0 0 nan nan nan nan nan nan nan nan nan nan
nan nan nan nan nan nan nan nan nan nan nan nan nan nan nan nan nan nan nan nan nan nan nan nan nan nan nan nan nan nan nan nan nan nan nan nan nan nan nan nan nan nan nan nan nan nan nan nan nan nan nan nan nan nan nan nan nan nan nan 0 0 0 nan nan nan nan nan nan 0 0 1 1 1 1 1 0 nan nan nan nan nan nan nan nan nan nan
nan nan nan nan nan nan nan nan nan nan nan nan nan nan nan nan nan nan nan nan nan nan nan nan nan nan nan nan nan nan nan nan nan nan nan nan nan nan nan nan nan nan nan nan nan nan nan nan nan nan nan nan nan nan nan nan nan nan nan 0 0 0 nan nan nan nan 0 0 1 1 1 1 1 1 1 0 nan nan nan nan nan nan nan nan nan nan
nan nan nan nan nan nan nan nan nan nan nan nan nan nan nan nan nan nan nan nan nan nan nan nan nan nan nan nan nan nan nan nan nan nan nan nan nan nan nan nan nan nan nan nan nan nan nan nan nan nan nan nan nan nan nan nan nan nan 0 0 0 0 nan nan nan nan 0 1 1 1 1 1 1 1 1 0 nan nan nan nan nan nan nan nan nan nan
nan nan nan nan nan nan nan nan nan nan nan nan nan nan nan nan nan nan nan nan nan nan nan nan nan nan nan nan nan nan nan nan nan nan nan nan nan nan nan nan nan nan nan nan nan nan nan nan nan nan nan nan nan nan nan nan nan 0 1 1 1 nan nan nan nan nan 1 1 1 1 1 1 1 1 1 1 0 0 nan nan nan nan nan nan nan nan
0 nan nan nan nan nan nan nan nan nan nan nan nan nan nan nan nan nan nan nan nan nan nan nan nan nan nan nan nan nan nan nan nan nan nan nan nan nan nan nan nan nan nan nan nan nan nan nan nan nan nan nan nan nan nan 0 0 1 1 0 0 nan nan nan nan 0 1 1 2 2 1 1 1 1 1 0 0 0 0 nan nan nan nan nan nan nan
0 1 0 0 0 0 0 nan nan nan nan nan nan nan nan nan nan nan nan nan nan nan nan nan nan nan nan nan nan nan nan nan nan nan nan nan nan nan nan nan nan nan nan nan nan nan nan nan nan nan nan nan nan nan nan 1 1 1 1 0 0 nan nan 0 0 1 2 2 2 2 2 1 1 1 0 0 0 0 0 0 0 0 2 0 0 nan
nan 0 nan 1 1 nan nan nan nan nan nan nan nan nan nan nan nan nan nan nan nan nan nan nan nan nan nan nan nan nan nan nan nan nan nan nan nan nan nan nan nan nan nan nan nan nan nan nan nan nan nan nan nan nan nan 2 2 2 2 1 1 0 0 1 1 1 1 2 2 2 2 1 1 1 0 nan nan nan nan 0 0 1 1 1 1 0
nan nan nan nan nan nan nan nan nan nan nan nan nan nan nan nan nan nan nan nan nan nan nan nan nan nan nan nan nan nan nan nan nan nan nan nan nan nan nan nan nan nan nan nan nan nan nan nan nan nan nan nan nan nan nan 3 3 2 2 2 2 2 1 1 1 1 1 2 2 2 1 1 0 0 0 nan nan nan nan 0 0 0 0 0 0 0
nan nan nan nan nan nan nan nan nan nan nan nan nan nan nan nan nan nan nan nan nan nan nan nan nan nan nan nan nan nan nan nan nan nan nan nan nan nan nan nan nan nan nan nan nan nan nan nan nan nan nan nan nan nan nan 3 3 3 3 3 3 3 2 1 1 1 1 1 1 1 1 1 0 0 0 nan nan nan nan nan nan nan nan nan nan nan
nan nan nan nan nan nan nan nan nan nan nan nan nan nan nan nan nan nan nan nan nan nan nan nan nan nan nan nan nan nan nan nan nan nan nan nan nan nan nan nan nan nan nan nan nan nan nan nan nan nan nan nan nan nan 0 5 5 3 4 4 4 3 2 2 2 1 1 1 1 1 1 0 0 0 0 nan nan nan nan nan nan nan nan nan nan nan
nan nan nan nan nan nan nan nan nan nan nan nan nan nan nan nan nan nan nan nan nan nan nan nan nan nan nan nan nan nan nan nan nan nan nan nan nan nan nan nan nan nan nan nan nan nan nan nan nan nan nan nan nan nan 2 5 5 4 4 4 4 3 2 2 2 1 1 1 1 1 0 0 0 0 nan nan nan nan nan nan nan nan nan nan nan nan
nan nan nan nan nan nan nan 1 1 1 0 nan nan nan nan nan nan nan nan nan nan nan nan nan nan nan nan nan nan nan nan nan nan nan nan nan nan nan nan nan nan nan nan nan nan nan nan nan nan nan nan nan nan nan 1 4 4 4 3 3 3 3 3 2 2 1 1 0 0 0 0 0 0 0 0 nan nan nan 0 nan nan nan nan nan nan nan
nan nan nan nan nan nan 1 5 5 5 3 0 nan nan nan nan nan nan nan nan nan nan nan nan nan nan nan nan nan nan nan nan nan nan nan nan nan nan nan nan nan nan nan nan nan nan nan nan nan nan nan nan nan nan nan 2 2 3 4 3 3 3 3 2 2 2 1 0 nan nan nan 0 0 0 0 0 0 0 1 0 0 nan nan nan nan nan
0 0 0 0 0 2 3 3 5 5 5 2 0 0 nan nan nan nan nan nan nan nan nan nan nan nan nan nan nan nan nan nan nan nan nan nan nan nan nan nan nan nan nan nan nan nan nan nan nan nan nan nan nan nan nan nan nan nan 0 3 3 2 1 1 1 0 0 nan nan nan nan nan nan nan nan 0 1 1 1 1 1 nan nan nan nan nan
nan nan 0 0 0 1 0 0 3 3 7 7 3 3 nan nan nan nan nan nan nan nan nan nan nan nan nan nan nan nan nan nan nan nan nan nan nan nan nan nan nan nan nan nan nan nan nan nan nan nan nan nan nan nan nan nan nan nan nan nan nan nan nan nan nan nan nan nan nan nan nan nan nan nan nan nan 0 0 1 1 1 0 0 nan nan nan
nan nan nan nan nan nan nan nan nan nan nan nan nan nan nan nan nan nan nan nan nan nan nan nan nan nan nan nan nan nan nan nan nan nan nan nan nan nan nan nan nan nan nan nan nan nan nan nan nan nan nan nan nan nan nan nan nan nan nan nan nan nan nan nan nan nan nan nan nan nan nan nan nan nan nan nan nan nan nan nan nan nan nan nan nan nan
nan nan nan nan nan nan nan nan nan nan nan nan nan nan nan nan nan nan nan nan nan nan nan nan nan nan nan nan nan nan nan nan nan nan nan nan nan nan nan nan nan nan nan nan nan nan nan nan nan nan nan nan nan nan nan nan nan nan nan nan nan nan nan nan nan nan nan nan nan nan nan nan nan nan nan nan nan nan nan nan nan nan nan nan nan nan
nan nan nan nan nan nan nan nan nan nan nan nan nan nan nan nan nan nan nan nan nan nan nan nan nan nan nan nan nan nan nan nan nan nan nan nan nan nan nan nan nan nan nan nan nan nan nan nan nan nan nan nan nan nan nan nan nan nan nan nan nan nan nan nan nan nan nan nan nan nan nan nan nan nan nan nan nan nan nan nan nan 0 nan nan nan nan
nan nan nan nan nan nan nan nan nan nan nan nan nan nan nan nan nan nan nan nan nan nan nan nan nan nan nan nan nan nan nan nan nan nan nan nan nan nan nan nan nan nan nan nan nan nan nan nan nan nan nan nan nan nan nan nan nan nan nan nan nan nan nan nan nan nan nan nan nan nan nan nan nan nan nan nan nan nan nan nan nan nan 0 1 1 0
nan nan nan nan nan nan nan nan nan nan nan nan nan nan nan nan nan nan nan nan nan nan nan nan nan nan nan nan nan nan nan nan nan nan nan nan nan nan nan nan nan nan nan nan nan nan nan nan nan nan nan nan nan nan nan nan nan nan nan nan nan nan nan nan nan nan nan nan nan nan nan nan nan nan nan nan nan nan nan nan nan nan nan 0 0 0
nan nan nan nan nan nan nan nan nan nan nan nan nan nan nan nan nan nan nan nan nan nan nan nan nan nan nan nan nan nan nan nan nan nan nan nan nan nan nan nan nan nan nan nan nan nan nan nan nan nan nan nan nan nan nan nan nan nan nan nan nan nan nan nan nan nan nan nan nan nan nan nan nan nan nan nan nan nan nan nan nan nan nan nan nan 0
nan nan nan nan nan nan nan nan nan nan nan nan nan nan nan nan nan nan nan nan nan nan nan nan nan nan nan nan nan nan nan nan nan nan nan nan nan nan nan nan nan nan nan nan nan nan nan nan nan nan nan nan nan nan nan nan nan nan nan nan nan nan nan nan nan nan nan nan nan nan nan nan nan nan nan nan nan nan nan nan nan nan nan nan nan nan
nan nan nan nan nan nan nan nan nan nan nan nan nan nan nan nan nan nan nan nan nan nan nan nan nan nan nan nan nan nan nan nan nan nan nan nan nan nan nan nan nan nan nan nan nan nan nan nan nan nan nan nan nan nan nan nan nan nan nan nan nan nan nan nan nan nan nan nan nan nan nan nan nan nan nan nan nan nan nan nan nan nan nan nan nan nan
nan nan nan nan nan nan nan nan nan nan nan nan nan nan nan nan nan nan nan nan nan nan nan nan nan nan nan nan nan nan nan nan nan nan nan nan nan nan nan nan nan nan nan nan nan nan nan nan nan nan nan nan nan nan nan nan nan nan nan nan nan nan nan nan nan nan nan nan nan nan nan nan nan nan nan nan nan nan nan nan nan nan nan nan nan nan
nan nan nan nan nan nan nan nan nan nan nan nan nan nan nan nan nan nan nan nan nan nan nan nan nan nan nan nan nan nan nan nan nan nan nan nan nan nan nan nan nan nan nan nan nan nan nan nan nan nan nan nan nan nan nan nan nan nan nan nan nan nan nan nan nan nan nan nan nan nan nan nan nan nan nan nan nan nan nan nan nan nan nan nan nan nan
nan nan nan nan nan nan nan nan nan nan nan nan nan nan nan nan nan nan nan nan nan nan nan nan nan nan nan nan nan nan nan nan nan nan nan nan nan nan nan nan nan nan nan nan nan nan nan nan nan nan nan nan nan nan nan nan nan nan nan nan nan nan nan nan nan nan nan nan nan nan nan nan nan nan nan nan nan nan nan nan nan nan nan nan nan nan
nan nan nan nan nan nan nan nan nan nan nan nan nan nan nan nan nan nan nan nan nan nan nan nan nan nan nan nan nan nan nan nan nan nan nan nan nan nan nan nan nan nan nan nan nan nan nan nan nan nan nan nan nan nan nan nan nan nan nan nan nan nan nan nan nan nan nan nan nan nan nan nan nan nan nan nan nan nan nan nan nan nan nan nan nan nan
nan nan nan nan nan nan nan nan nan nan nan nan nan nan nan nan nan nan nan nan nan nan nan nan nan nan nan nan nan nan nan nan nan nan nan nan nan nan nan nan nan nan nan nan nan nan nan nan nan nan nan nan nan nan nan nan nan nan nan nan nan nan nan nan nan nan nan nan nan nan nan nan nan nan nan nan nan nan nan nan nan nan nan nan nan nan
nan nan nan nan nan nan nan nan nan nan nan nan nan nan nan nan nan nan nan nan nan nan nan nan nan nan nan nan nan nan nan nan nan nan nan nan nan nan nan nan nan nan nan nan nan nan nan nan nan nan nan nan nan nan nan nan nan nan nan nan nan nan nan nan nan nan nan nan nan nan nan nan nan nan nan nan nan nan nan nan nan nan nan nan nan nan
nan nan nan nan nan nan nan nan nan nan nan nan nan nan nan nan nan nan nan nan nan nan nan nan nan nan nan nan nan nan nan nan nan nan nan nan nan nan nan nan nan nan nan nan nan nan nan nan nan nan nan nan nan nan nan nan nan nan nan nan nan nan nan nan nan nan nan nan nan nan nan nan nan nan nan nan nan nan nan nan nan nan nan nan nan nan
nan nan nan nan nan nan nan nan nan nan nan nan nan nan nan nan nan nan nan nan nan nan nan nan nan nan nan nan nan nan nan nan nan nan nan nan nan nan nan nan nan nan nan nan nan nan nan nan nan nan nan nan nan nan nan nan nan nan nan nan nan nan nan nan nan nan nan nan nan nan nan nan nan nan nan nan nan nan nan nan nan nan nan nan nan nan
nan nan nan nan nan nan nan nan nan nan nan nan nan nan nan nan nan nan nan nan nan nan nan nan nan nan nan nan nan nan nan nan nan nan nan nan nan nan nan nan nan nan nan nan nan nan nan nan nan nan nan nan nan nan nan nan nan nan nan nan nan nan nan nan nan nan nan nan nan nan nan nan nan nan nan nan nan nan nan nan nan nan nan nan nan nan
nan nan nan nan nan nan nan nan nan nan nan nan nan nan nan nan nan nan nan nan nan nan nan nan nan nan nan nan nan nan nan nan nan nan nan nan nan nan nan nan nan nan nan nan nan nan nan nan nan nan nan nan nan nan nan nan nan nan nan nan nan nan nan nan nan nan nan nan nan nan nan nan nan nan nan nan nan nan nan nan nan nan nan nan nan nan
nan nan nan nan nan nan nan nan nan nan nan nan nan nan nan nan nan nan nan nan nan nan nan nan nan nan nan nan nan nan nan nan nan nan nan nan nan nan nan nan nan nan nan nan nan nan nan nan nan nan nan nan nan nan nan nan nan nan nan nan nan nan nan nan nan nan nan nan nan nan nan nan nan nan nan nan nan nan nan nan nan nan nan nan nan nan
nan nan nan nan nan nan nan nan nan nan nan nan nan nan nan nan nan nan nan nan nan nan nan nan nan nan nan nan nan nan nan nan nan nan nan nan nan nan nan nan nan nan nan nan nan nan nan nan nan nan nan nan nan nan nan nan nan nan nan nan nan nan nan nan nan nan nan nan nan nan nan nan nan nan nan nan nan nan nan nan nan nan nan nan nan nan